Location: Unspecified
(0.0000°N, 0.0000°E)
Time: 17:25:27
(UTC+00:00)

STARLINK 1054 - Pass Details

Date: 21 January 2020
Orbit: 549 x 551 km, 53.0° (Epoch: 23 January)

Event Time Altitude Azimuth Distance (km) Brightness Sun altitude
Rises 04:59:30 0° 208° (SSW) 2,723 7.1 -16.8°
Reaches altitude 10° 05:01:45 10° 204° (SSW) 1,826 6.2 -16.3°
Maximum altitude 05:05:51 61° 124° (SE) 626 4.2 -15.3°
Drops below altitude 10° 05:09:55 10° 43° (NE) 1,813 6.5 -14.3°
Sets 05:12:10 0° 40° (NE) 2,702 7.4 -13.8°
